Home   Weather   Bornheim (Rheinland)   Past weeks

Flag for Germany Past Weather in Bornheim (Rheinland), North Rhine-Westphalia, Germany — Yesterday and Last 2 Weeks

Now
47 °F

Overcast.


Feels Like: 45 °F
Forecast: 39 / 49 °F
Wind: 5 mph from Southwest

Location: Aachen-Orsbach

Current Time: Apr 25, 2017 at 1:28:17 am

Latest Report: Apr 25, 2017 at 1:00 am


Visibility: 22 mi

Pressure: 29.76 "Hg

Humidity: 72%

Dew Point: 38 °F

Location of Bornheim (Rheinland)Location

Past Weather in Bornheim (Rheinland) — Graph

°F

Bornheim (Rheinland) Temperature Yesterday

Maximum temperature yesterday: 56 °F (at 4:00 pm)
Minimum temperature yesterday: 36 °F (at 4:00 am)
Average temperature yesterday: 47 °F

High & Low Weather Summary for the Past Weeks

 TemperatureHumidityPressure
High57 °F (Apr 12, 6:00 pm)98% (Apr 15, 12:00 pm)30.65 "Hg (Apr 15, 12:00 pm)
Low32 °F (Apr 20, 4:00 am)35% (Apr 20, 4:00 pm)29.78 "Hg (Apr 25, 12:00 am)
Average44 °F70%30.22 "Hg
* Reported Apr 10 12:00 am — Apr 25 12:00 am, Bornheim (Rheinland), Weather by CustomWeather, © 2017

Note: Actual official high and low records may vary slightly from our data, if they occured in-between our weather recording intervals... More about our weather records

Advertising

Bornheim (Rheinland) Weather History for the Previous 24 Hours

Scroll right to see more
 ConditionsComfort  
Time TempWeatherWind HumidityBarometerVisibility
12:00 am
Tue, Apr 25
48 °FOvercast.6 mph67%29.78 "Hg25 mi
10:00 pm
Mon, Apr 24
50 °FOvercast.5 mph62%29.82 "Hg16 mi
9:00 pm50 °FOvercast.3 mph62%29.83 "Hg17 mi
7:00 pm55 °FOvercast.5 mph50%29.85 "Hg16 mi
6:00 pm56 °FOvercast.7 mph48%29.87 "Hg14 mi
4:00 pm56 °FOvercast.8 mph46%29.92 "Hg25 mi
3:00 pm55 °FPartly sunny.7 mph48%29.96 "Hg25 mi
1:00 pm54 °FScattered clouds.6 mph50%30.01 "Hg25 mi
12:00 pm52 °FPartly sunny.7 mph55%30.04 "Hg25 mi
10:00 am47 °FPartly sunny.7 mph56%30.08 "Hg25 mi
9:00 am44 °FScattered clouds.6 mph61%30.10 "Hg25 mi
7:00 am39 °FPassing clouds.6 mph69%30.11 "Hg25 mi
6:00 am38 °FPassing clouds.7 mph72%30.14 "Hg25 mi
4:00 am36 °FHaze.5 mph79%30.18 "Hg18 mi
3:00 am37 °FClear.3 mph78%30.19 "Hg25 mi
1:00 am38 °FClear.2 mph75%30.24 "Hg31 mi
Weather by CustomWeather, © 2017

See weather overviewHow to use our weather pages